(413225) = 2003 RD10

Discovered at Bergisch Gladba on 2003-09-02 by W. Bickel.

Orbit

Orbit type: Main Belt

Note: WebGL enabled browser required.

epoch2022-01-21.0
epoch JD2459600.5
perihelion date2020-07-08.85829
perihelion JD2459039.35829
argument of perihelion (°)71.56672
ascending node (°)2.69522
inclination (°)10.76890
eccentricity0.1371825
perihelion distance (AU)2.6395923
Tisserand w.r.t. Jupiter3.2
ΔV w.r.t. Earth (km/sec)10.7
semimajor axis (AU)3.0592707
mean anomaly (°)103.35929
mean daily motion (°/day)0.18419460
aphelion distance (AU)3.479
period (years)5.35
P-vector [x]0.27202567
P-vector [y]0.79726475
P-vector [z]0.53886080
Q-vector [x]-0.96224988
Q-vector [y]0.22025313
Q-vector [z]0.15988659
absolute magnitude16.15
phase slope0.15
uncertainty0
referenceMPO 699286
observations used326
oppositions10
arc length (days)6819
first opposition used2003
last opposition used2022
residual rms (arc-secs)0.79
perturbers coarse indicatorM-v
perturbers precise indicator003Ek
first observation date used2003-09-02.0
last observation date used2022-05-04.0
computer namePan
Minimum Orbit Intersection Distances (in AU)
for orbit epoch: 2458200.5, reference: MPO411352
Mercury2.3371
Venus1.93739
Earth1.67955
Mars1.12717
Jupiter1.9086
Saturn6.3746
Uranus15.016
Neptune26.8077

Observations

338 total observations over interval: 2003 09 02.07854 – 2022 05 22.325058
These data are available for download (format description).

Date (UT) J2000 RA J2000 Dec Magn Location Ref
2003 09 02.07854 01 28 28.76 +11 10 14.0   621 – Bergisch Gladbach MPS 84598
2003 09 02.08244 01 28 28.59 +11 10 15.5   621 – Bergisch Gladbach MPS 84598
2003 09 02.08632 01 28 28.53 +11 10 15.9   621 – Bergisch Gladbach MPS 84598
2003 09 02.09021 01 28 28.46 +11 10 16.2 21.4 R 621 – Bergisch Gladbach MPS 84598
2003 09 02.09411 01 28 28.30 +11 10 17.4   621 – Bergisch Gladbach MPS 84598
2003 09 03.09728 01 28 10.10 +11 12 38.4   621 – Bergisch Gladbach MPS 84598
2003 09 05.02495 01 27 31.02 +11 16 50.7   621 – Bergisch Gladbach MPS 84598
2003 09 05.03662 01 27 30.75 +11 16 52.8 20.6 R 621 – Bergisch Gladbach MPS 84598
2003 09 05.04827 01 27 30.36 +11 16 54.8   621 – Bergisch Gladbach MPS 84598
2003 10 02.36180 01 09 54.87 +11 32 32.2 20.6 V 691 – Steward Observatory, Kitt Peak-Spacewatch MPS 89434
2003 10 02.38777 01 09 53.48 +11 32 30.9 20.3 V 691 – Steward Observatory, Kitt Peak-Spacewatch MPS 89434
2003 10 02.41443 01 09 52.08 +11 32 29.5 20.5 V 691 – Steward Observatory, Kitt Peak-Spacewatch MPS 89434
2003 10 25.21843 00 49 48.27 +10 58 20.4 19.8   704 – Lincoln Laboratory ETS, New Mexico MPS 89434
2003 10 25.23086 00 49 47.72 +10 58 19.2 20.2   704 – Lincoln Laboratory ETS, New Mexico MPS 89434
2003 10 25.24307 00 49 47.08 +10 58 17.6 19.8   704 – Lincoln Laboratory ETS, New Mexico MPS 89434
2003 10 25.25488 00 49 46.43 +10 58 15.9 20.2   704 – Lincoln Laboratory ETS, New Mexico MPS 89434
2003 10 27.14573 00 48 15.86 +10 54 55.2 20.8 V 291 – LPL/Spacewatch II MPS 89434
2003 10 27.16896 00 48 14.73 +10 54 52.7 20.7 V 291 – LPL/Spacewatch II MPS 89434
2003 10 27.19257 00 48 13.56 +10 54 50.4 20.5 V 291 – LPL/Spacewatch II MPS 89434
2008 09 03.07170 23 12 14.53 -11 01 33.2 19.7 V J75 – OAM Observatory, La Sagra MPS 309276
2008 09 03.08503 23 12 13.85 -11 01 35.7 19.7 V J75 – OAM Observatory, La Sagra MPS 309276
2008 09 03.09830 23 12 13.09 -11 01 37.5 19.4 V J75 – OAM Observatory, La Sagra MPS 309276
2008 09 25.23851 22 53 41.56 -11 36 27.0 20.4 V G96 – Mt. Lemmon Survey MPS 309276
2008 09 25.24404 22 53 41.28 -11 36 27.2 20.7 V G96 – Mt. Lemmon Survey MPS 309276
2008 09 25.24958 22 53 40.99 -11 36 27.4 20.4 V G96 – Mt. Lemmon Survey MPS 309276
2008 09 25.25512 22 53 40.74 -11 36 28.1 20.7 V G96 – Mt. Lemmon Survey MPS 309276
2008 11 02.09897 22 39 09.50 -10 33 51.0 20.4 V G96 – Mt. Lemmon Survey MPS 309276
2008 11 02.10734 22 39 09.50 -10 33 49.2 20.6 V G96 – Mt. Lemmon Survey MPS 309276
2008 11 02.11559 22 39 09.50 -10 33 47.1 21.4 V G96 – Mt. Lemmon Survey MPS 309276
2008 11 02.12394 22 39 09.57 -10 33 45.0 20.9 V G96 – Mt. Lemmon Survey MPS 309276
2011 03 04.33399 12 32 52.64 -02 58 45.7 21.3 V 691 – Steward Observatory, Kitt Peak-Spacewatch MPS 373391
2011 03 04.35463 12 32 51.73 -02 58 43.2 20.8 V 691 – Steward Observatory, Kitt Peak-Spacewatch MPS 373391
2011 03 04.37232 12 32 51.02 -02 58 41.4 20.6 V 691 – Steward Observatory, Kitt Peak-Spacewatch MPS 373391
2011 03 28.33089 12 13 35.43 -02 07 19.7 20.3 V G96 – Mt. Lemmon Survey MPS 375501
2011 03 28.33610 12 13 35.18 -02 07 18.8 20.3 V G96 – Mt. Lemmon Survey MPS 375501
2011 03 28.34138 12 13 34.93 -02 07 18.4 20.5 V G96 – Mt. Lemmon Survey MPS 375501
2011 03 28.34662 12 13 34.64 -02 07 17.4 20.4 V G96 – Mt. Lemmon Survey MPS 375501
2011 03 31.36323 12 11 02.771 -01 59 57.45 20.8 w F51 – Pan-STARRS 1, Haleakala MPS 377113
2011 03 31.37879 12 11 01.971 -01 59 55.24 20.7 w F51 – Pan-STARRS 1, Haleakala MPS 377113
2011 03 31.39535 12 11 01.118 -01 59 52.87 20.8 w F51 – Pan-STARRS 1, Haleakala MPS 377113
2011 03 31.41088 12 11 00.316 -01 59 50.70 20.9 w F51 – Pan-STARRS 1, Haleakala MPS 377113
2011 04 29.18470 11 51 59.07 -01 13 10.5 21.1 V G96 – Mt. Lemmon Survey MPS 380014
2011 04 29.19082 11 51 58.93 -01 13 10.3 21.2 V G96 – Mt. Lemmon Survey MPS 380014
2011 04 29.19700 11 51 58.78 -01 13 10.5 21.1 V G96 – Mt. Lemmon Survey MPS 380014
2011 04 29.20315 11 51 58.57 -01 13 10.2 21.2 V G96 – Mt. Lemmon Survey MPS 380014
2014 10 15.33326 03 04 13.07 +27 48 40.8 19.8 V 703 – Catalina Sky Survey MPS 538879
2014 10 15.33827 03 04 12.81 +27 48 40.9 20.0 V 703 – Catalina Sky Survey MPS 538879
2014 10 15.34328 03 04 12.63 +27 48 42.1 20.7 V 703 – Catalina Sky Survey MPS 538879
2014 10 15.34829 03 04 12.36 +27 48 43.5 20.1 V 703 – Catalina Sky Survey MPS 538879
2014 10 22.35438 02 58 47.78 +28 04 34.4 20.2 V 703 – Catalina Sky Survey MPS 540469
2014 10 22.35945 02 58 47.49 +28 04 34.3 20.0 V 703 – Catalina Sky Survey MPS 540469
2014 10 22.36450 02 58 47.18 +28 04 34.8 20.1 V 703 – Catalina Sky Survey MPS 540469
2014 10 22.36956 02 58 46.95 +28 04 34.3 20.3 V 703 – Catalina Sky Survey MPS 540469
2014 10 26.38693 02 55 15.46 +28 10 09.4 19.9 r G45 – Space Surveillance Telescope, Atom Site MPS 558628
2014 10 26.39812 02 55 14.82 +28 10 09.7 19.9 r G45 – Space Surveillance Telescope, Atom Site MPS 558628
2014 10 26.40928 02 55 14.18 +28 10 10.7 20.0 r G45 – Space Surveillance Telescope, Atom Site MPS 558628
2014 10 26.40948 02 55 14.22 +28 10 10.9 19.8 r G45 – Space Surveillance Telescope, Atom Site MPS 558628
2014 10 26.42043 02 55 13.59 +28 10 10.9 20.2 r G45 – Space Surveillance Telescope, Atom Site MPS 558628
2014 10 26.42064 02 55 13.57 +28 10 11.3 20.1 r G45 – Space Surveillance Telescope, Atom Site MPS 558628
2014 10 26.43159 02 55 12.92 +28 10 11.8 19.9 r G45 – Space Surveillance Telescope, Atom Site MPS 558628
2014 10 26.43179 02 55 13.00 +28 10 11.9 20.1 r G45 – Space Surveillance Telescope, Atom Site MPS 558628
2014 11 17.20808 02 34 08.92 +27 56 40.6 20.0 V 703 – Catalina Sky Survey MPS 547618
2014 11 17.21312 02 34 08.69 +27 56 41.1 19.8 V 703 – Catalina Sky Survey MPS 547618
2014 11 17.21818 02 34 08.46 +27 56 39.7 19.6 V 703 – Catalina Sky Survey MPS 547618
2014 11 17.22322 02 34 08.11 +27 56 39.2 19.5 V 703 – Catalina Sky Survey MPS 547618
2014 11 22.23511 02 29 38.87 +27 45 04.5 19.5 V G96 – Mt. Lemmon Survey MPS 549611
2014 11 22.24121 02 29 38.56 +27 45 03.4 19.5 V G96 – Mt. Lemmon Survey MPS 549611
2014 11 22.24732 02 29 38.25 +27 45 02.6 19.3 V G96 – Mt. Lemmon Survey MPS 549611
2014 11 22.25342 02 29 37.91 +27 45 01.6 19.4 V G96 – Mt. Lemmon Survey MPS 549611
2014 11 25.25772 02 27 09.183 +27 37 10.59 19.9 w F51 – Pan-STARRS 1, Haleakala MPS 549611
2014 11 25.26965 02 27 08.585 +27 37 08.69 19.8 w F51 – Pan-STARRS 1, Haleakala MPS 549611
2014 11 25.28150 02 27 07.999 +27 37 06.74 19.8 w F51 – Pan-STARRS 1, Haleakala MPS 549611
2014 12 07.38798 02 19 13.795 +27 02 31.35 20.0 i F51 – Pan-STARRS 1, Haleakala MPS 553039
2014 12 07.40053 02 19 13.407 +27 02 29.09 19.9 i F51 – Pan-STARRS 1, Haleakala MPS 553039
2014 12 07.41308 02 19 13.023 +27 02 26.87 19.9 i F51 – Pan-STARRS 1, Haleakala MPS 553039
2014 12 07.42563 02 19 12.632 +27 02 24.48 19.9 i F51 – Pan-STARRS 1, Haleakala MPS 553039
2015 12 16.57521 11 03 55.772 +14 57 44.30 21.1 w F51 – Pan-STARRS 1, Haleakala MPS 662672
2015 12 16.58731 11 03 56.114 +14 57 42.58 21.5 w F51 – Pan-STARRS 1, Haleakala MPS 662672
2015 12 17.61657 11 04 25.451 +14 55 25.28 21.6 w F51 – Pan-STARRS 1, Haleakala MPS 662672
2015 12 17.62841 11 04 25.713 +14 55 24.24 21.3 w F51 – Pan-STARRS 1, Haleakala MPS 662672
2016 02 04.42992 10 58 48.426 +15 24 36.67 20.7 w F51 – Pan-STARRS 1, Haleakala MPS 678913
2016 02 04.44216 10 58 47.896 +15 24 38.68 20.6 w F51 – Pan-STARRS 1, Haleakala MPS 678913
2016 02 04.45439 10 58 47.370 +15 24 40.72 20.4 w F51 – Pan-STARRS 1, Haleakala MPS 678913
2016 02 04.46675 10 58 46.842 +15 24 42.70 20.5 w F51 – Pan-STARRS 1, Haleakala MPS 678913
2016 02 05.39164 10 58 08.180 +15 27 10.67 20.6 w F51 – Pan-STARRS 1, Haleakala MPS 682406
2016 02 05.40463 10 58 07.617 +15 27 12.89 20.4 w F51 – Pan-STARRS 1, Haleakala MPS 682406
2016 02 05.41762 10 58 07.045 +15 27 15.04 20.3 w F51 – Pan-STARRS 1, Haleakala MPS 682406
2016 02 05.43071 10 58 06.473 +15 27 17.23 20.4 w F51 – Pan-STARRS 1, Haleakala MPS 682406
2016 02 14.20751 10 51 15.84 +15 51 09.1 21.0 r G45 – Space Surveillance Telescope, Atom Site MPS 686093
2016 02 14.21222 10 51 15.54 +15 51 10.6 20.0 r G45 – Space Surveillance Telescope, Atom Site MPS 686093
2016 02 14.22236 10 51 15.08 +15 51 11.3 20.2 r G45 – Space Surveillance Telescope, Atom Site MPS 686093
2016 02 14.22721 10 51 14.90 +15 51 12.5 19.6 r G45 – Space Surveillance Telescope, Atom Site MPS 686093
2016 03 03.29786 10 35 05.28 +16 30 46.4 19.5 V 703 – Catalina Sky Survey MPS 689996
2016 03 03.31413 10 35 04.43 +16 30 46.7 20.3 V 703 – Catalina Sky Survey MPS 689996
